User: anonymous
Location: NJAA Observatory
(40.6819°N, 74.8979°W)
Time: 06:21:04
(UTC-04:00)
Language:

Cosmos 1633 - Orbit

View from above orbital plane
View from above orbital plane
View from above satellite
View from above satellite

Ground track
Ground track

The orbit data is extracted from the following two-line orbital elements,

1 15592U 85020A   14293.00199194  .00010792  00000-0  49831-3 0  5813
2 15592 082.5437 207.9302 0017145 004.5180 121.5765 15.19953308616231
Epoch (UTC): 20 October 2014 00:02:52
Eccentricity: 0.0017145
inclination: 82.5437°
perigee height: 494 km
apogee height: 518 km
right ascension of ascending node: 207.9302°
argument of perigee: 4.5180°
revolutions per day: 15.19953308
mean anomaly at epoch: 121.5765°
orbit number at epoch: 61623

The dashed part of the orbit path shows where the satellite is in the earth's shadow,  

DLR